Regional Weather Roundup
Issued by NWS

Home | Current Version | Previous Version | Graphics & Text | Print | Product List | Glossary On
Versions: 1 2 3 4 5 6 7 8 9 10 11 12 13 14 15 16 17 18 19 20 21 22 23 24 25 26 27 28 29 30 31 32 33 34 35 36 37 38 39 40 41 42 43 44 45 46 47 48 49 50
774
ASUS45 KABQ 242201
RWRNM
NEW MEXICO REGIONAL WEATHER ROUNDUP
NATIONAL WEATHER SERVICE ALBUQUERQUE NM
400 PM MDT WED AUG 24 2016

NOTE: "FAIR" MEANS FEW OR NO CLOUDS BELOW 12,000 FEET AGL WITH NO
       SIGNIFICANT WEATHER OR OBSTRUCTIONS TO VISION.

      THIS PRODUCT IS RELEASED AS TWO VERSIONS.  ONE VERSION NEAR
      THE TOP OF THE HOUR CONTAINING PRELIMINARY DATA FROM ALBUQUERQUE
      AND OTHER STATIONS.  A FINAL VERSION WITH ADDITIONAL DATA IS
      ISSUED ABOUT 10 MINUTES AFTER THE HOUR.

NMZ501-503-504-510>518-242300-
NORTHWEST PLATEAU/NORTHCENTRAL MOUNTAINS

CITY           SKY/WX    TMP DP  RH WIND       PRES   REMARKS
FARMINGTON     FAIR      78  44  29 SW8       30.15F
LOS ALAMOS     CLOUDY    58  48  69 W7        30.29F
SANTA FE       CLOUDY    66  47  50 NW8       30.24R
TAOS           CLOUDY    61  50  67 NE7       30.29S
ANGEL FIRE     CLOUDY    52  44  74 S8        30.37R

$$
NMZ402-403-502-505>509-242300-
WESTCENTRAL MOUNTAINS/SOUTHWEST MOUNTAINS

CITY           SKY/WX    TMP DP  RH WIND       PRES   REMARKS
GALLUP         FAIR      70  45  40 NE6       30.25F
GRANTS         FAIR      76  36  23 N15G25    30.26S
SILVER CITY    PTSUNNY   80  44  27 CALM      30.15F

$$
NMZ407-409-411-412-242300-
SOUTHERN DESERTS

CITY           SKY/WX    TMP DP  RH WIND       PRES   REMARKS
DEMING         FAIR      87  47  24 SW10      30.08F
LAS CRUCES     FAIR      87  43  21 SW10G16   30.10F
HOLLOMAN AFB   FAIR      89  45  21 VRB3G20   30.05F
ALAMOGORDO     FAIR      88  45  22 SW13      30.08F
T OR C         PTSUNNY   83  45  26 VRB6      30.09F

$$
NMZ519>523-242300-
CENTRAL VALLEYS/CENTRAL HIGHLANDS

CITY           SKY/WX    TMP DP  RH WIND       PRES   REMARKS
ALBUQUERQUE    PTSUNNY   75  48  38 W5        30.18F
DOUBLE EAGLE   PTSUNNY   73  46  38 VRB7      30.21F
MORIARTY ARPT  CLOUDY    69  45  43 S5        30.22F
CLINES CORNERS CLOUDY    71  45  39 W18G24    30.26F
BELEN          CLOUDY    75  43  31 N6        30.18S
SOCORRO        PTSUNNY   78  49  36 N12       30.14F

$$
NMZ524>526-539-540-242300-
SOUTHCENTRAL MOUNTAINS

CITY           SKY/WX    TMP DP  RH WIND       PRES   REMARKS
RUIDOSO        NOT AVBL

$$
NMZ527>531-242300-
NORTHEAST HIGHLANDS/NORTHEAST PLAINS

CITY           SKY/WX    TMP DP  RH WIND       PRES   REMARKS
LAS VEGAS      PTSUNNY   70  43  37 NW13      30.22S
RATON          LGT RAIN  62  47  57 N15       30.23R
CLAYTON        FAIR      79  50  36 N6        30.12F

$$
NMZ532>537-242300-
EASTCENTRAL PLAINS

CITY           SKY/WX    TMP DP  RH WIND       PRES   REMARKS
TUCUMCARI      FAIR      85  50  29 VRB3      30.03F
CANNON AFB     FAIR      86  51  30 S16       30.08F
CLOVIS AIRPORT FAIR      82  55  39 S26G37    30.09F

$$
NMZ028-029-538-242300-
SOUTHEAST PLAINS

CITY           SKY/WX    TMP DP  RH WIND       PRES   REMARKS
ROSWELL        FAIR      82  62  50 S22G28    30.05F
ARTESIA        FAIR      81  63  54 SE30G36   30.06F
CARLSBAD       FAIR      79  62  56 SE18      30.06F
HOBBS          PTSUNNY   68  68 100 SE14G20   30.13F


$$




USA.gov is the U.S. government's official web portal to all federal, state and local government web resources and services.